Time,TemperatureF,DewpointF,PressureIn,WindDirection,WindDirectionDegrees,WindSpeedMPH,WindSpeedGustMPH,Humidity,HourlyPrecipIn,Conditions,Clouds,dailyrainin,SoftwareType,DateUTC
2013-11-06 00:00:00,50.1,45.8,30.49,NE,46,0.0,1.0,85,0.00,,,0.00,VWS V14.00,2013-11-06 05:00:00,
2013-11-06 00:01:00,50.0,45.7,30.49,NE,46,0.0,0.0,85,0.00,,,0.00,VWS V14.00,2013-11-06 05:01:00,
2013-11-06 00:02:00,50.0,45.7,30.49,NE,44,0.0,0.0,85,0.00,,,0.00,VWS V14.00,2013-11-06 05:02:00,
2013-11-06 00:07:00,50.0,45.7,30.49,NE,44,0.0,0.0,85,0.00,,,0.00,VWS V14.00,2013-11-06 05:07:00,
2013-11-06 00:12:00,50.0,45.4,30.49,North,355,0.0,2.0,84,0.00,,,0.00,VWS V14.00,2013-11-06 05:12:00,
2013-11-06 00:17:00,50.0,45.7,30.49,NNE,21,0.0,2.0,85,0.00,,,0.00,VWS V14.00,2013-11-06 05:17:00,
2013-11-06 00:22:00,49.9,45.3,30.49,NW,304,0.0,2.0,84,0.00,,,0.00,VWS V14.00,2013-11-06 05:22:00,
2013-11-06 00:27:00,49.9,45.3,30.49,NNW,339,0.0,2.0,84,0.00,,,0.00,VWS V14.00,2013-11-06 05:27:00,
2013-11-06 00:30:00,49.9,45.3,30.49,NNW,339,0.0,2.0,84,0.00,,,0.00,VWS V14.00,2013-11-06 05:30:00,
2013-11-06 00:32:00,49.8,45.2,30.49,NNW,339,0.0,0.0,84,0.00,,,0.00,VWS V14.00,2013-11-06 05:32:00,
2013-11-06 00:37:00,49.9,45.3,30.49,NNW,339,0.0,0.0,84,0.00,,,0.00,VWS V14.00,2013-11-06 05:37:00,
2013-11-06 00:42:00,49.9,45.6,30.49,NNW,339,0.0,0.0,85,0.00,,,0.00,VWS V14.00,2013-11-06 05:42:00,
2013-11-06 00:47:00,49.9,45.9,30.48,NNW,339,0.0,0.0,86,0.00,,,0.00,VWS V14.00,2013-11-06 05:47:00,
2013-11-06 00:52:00,49.9,45.6,30.48,NNW,339,0.0,0.0,85,0.00,,,0.00,VWS V14.00,2013-11-06 05:52:00,
2013-11-06 00:57:00,49.9,45.6,30.48,NNW,339,0.0,0.0,85,0.00,,,0.00,VWS V14.00,2013-11-06 05:57:00,
2013-11-06 01:00:00,49.9,45.6,30.48,NNW,339,0.0,0.0,85,0.00,,,0.00,VWS V14.00,2013-11-06 06:00:00,
2013-11-06 01:02:00,49.9,45.6,30.48,NNW,339,0.0,0.0,85,0.00,,,0.00,VWS V14.00,2013-11-06 06:02:00,
2013-11-06 01:07:00,49.9,45.6,30.48,NNW,339,0.0,1.0,85,0.00,,,0.00,VWS V14.00,2013-11-06 06:07:00,
2013-11-06 01:12:00,49.8,45.8,30.48,NNW,346,0.0,1.0,86,0.00,,,0.00,VWS V14.00,2013-11-06 06:12:00,
2013-11-06 01:17:00,49.8,45.8,30.48,North,351,0.0,1.0,86,0.00,,,0.00,VWS V14.00,2013-11-06 06:17:00,
2013-11-06 01:22:00,49.8,45.8,30.47,North,355,0.0,1.0,86,0.00,,,0.00,VWS V14.00,2013-11-06 06:22:00,
2013-11-06 01:27:00,49.8,45.8,30.47,North,355,0.0,1.0,86,0.00,,,0.00,VWS V14.00,2013-11-06 06:27:00,
2013-11-06 01:30:00,49.8,45.8,30.47,North,355,0.0,1.0,86,0.00,,,0.00,VWS V14.00,2013-11-06 06:30:00,
2013-11-06 01:32:00,49.8,45.8,30.47,North,355,0.0,1.0,86,0.00,,,0.00,VWS V14.00,2013-11-06 06:32:00,
2013-11-06 01:37:00,49.8,45.8,30.47,North,355,0.0,1.0,86,0.00,,,0.00,VWS V14.00,2013-11-06 06:37:00,
2013-11-06 01:42:00,49.7,45.7,30.47,North,355,0.0,1.0,86,0.00,,,0.00,VWS V14.00,2013-11-06 06:42:00,
2013-11-06 01:47:00,49.7,45.7,30.46,North,355,0.0,1.0,86,0.00,,,0.00,VWS V14.00,2013-11-06 06:47:00,
2013-11-06 01:52:00,49.7,45.7,30.46,North,355,0.0,1.0,86,0.00,,,0.00,VWS V14.00,2013-11-06 06:52:00,
2013-11-06 01:57:00,49.7,45.7,30.46,North,355,0.0,1.0,86,0.00,,,0.00,VWS V14.00,2013-11-06 06:57:00,
2013-11-06 02:00:00,49.7,45.7,30.46,North,355,0.0,1.0,86,0.00,,,0.00,VWS V14.00,2013-11-06 07:00:00,
2013-11-06 02:02:00,49.7,46.0,30.46,North,355,0.0,0.0,87,0.00,,,0.00,VWS V14.00,2013-11-06 07:02:00,
2013-11-06 02:07:00,49.6,45.6,30.46,North,355,0.0,1.0,86,0.00,,,0.00,VWS V14.00,2013-11-06 07:07:00,
2013-11-06 02:12:00,49.6,45.6,30.46,North,355,0.0,1.0,86,0.00,,,0.00,VWS V14.00,2013-11-06 07:12:00,
2013-11-06 02:17:00,49.6,45.9,30.46,NNW,347,0.0,1.0,87,0.00,,,0.00,VWS V14.00,2013-11-06 07:17:00,
2013-11-06 02:22:00,49.5,45.8,30.46,NNW,347,0.0,1.0,87,0.00,,,0.00,VWS V14.00,2013-11-06 07:22:00,
2013-11-06 02:27:00,49.5,45.8,30.46,NNW,346,0.0,2.0,87,0.00,,,0.00,VWS V14.00,2013-11-06 07:27:00,
2013-11-06 02:30:00,49.5,45.8,30.46,NNW,346,0.0,2.0,87,0.00,,,0.00,VWS V14.00,2013-11-06 07:30:00,
2013-11-06 02:32:00,49.5,45.8,30.46,NNW,346,0.0,0.0,87,0.00,,,0.00,VWS V14.00,2013-11-06 07:32:00,
2013-11-06 02:37:00,49.5,45.8,30.46,NNW,346,0.0,0.0,87,0.00,,,0.00,VWS V14.00,2013-11-06 07:37:00,
2013-11-06 02:42:00,49.5,45.8,30.45,NNW,346,0.0,0.0,87,0.00,,,0.00,VWS V14.00,2013-11-06 07:42:00,
2013-11-06 02:47:00,49.5,45.8,30.45,NNW,346,0.0,0.0,87,0.00,,,0.00,VWS V14.00,2013-11-06 07:47:00,
2013-11-06 02:52:00,49.5,45.8,30.45,NNW,346,0.0,0.0,87,0.00,,,0.00,VWS V14.00,2013-11-06 07:52:00,
2013-11-06 02:57:00,49.5,45.8,30.45,NNW,346,0.0,0.0,87,0.00,,,0.00,VWS V14.00,2013-11-06 07:57:00,
2013-11-06 03:00:00,49.5,45.8,30.45,NNW,346,0.0,0.0,87,0.00,,,0.00,VWS V14.00,2013-11-06 08:00:00,
2013-11-06 03:02:00,49.5,45.8,30.44,NNW,346,0.0,0.0,87,0.00,,,0.00,VWS V14.00,2013-11-06 08:02:00,
2013-11-06 03:07:00,49.5,46.1,30.44,NNW,346,0.0,0.0,88,0.00,,,0.00,VWS V14.00,2013-11-06 08:07:00,
2013-11-06 03:12:00,49.5,46.1,30.44,NNW,346,0.0,0.0,88,0.00,,,0.00,VWS V14.00,2013-11-06 08:12:00,
2013-11-06 03:17:00,49.5,46.1,30.44,NNW,346,0.0,0.0,88,0.00,,,0.00,VWS V14.00,2013-11-06 08:17:00,
2013-11-06 03:22:00,49.5,46.1,30.44,NNW,346,0.0,0.0,88,0.00,,,0.00,VWS V14.00,2013-11-06 08:22:00,
2013-11-06 03:27:00,49.5,46.1,30.44,NNW,346,0.0,0.0,88,0.00,,,0.00,VWS V14.00,2013-11-06 08:27:00,
2013-11-06 03:30:00,49.4,46.0,30.44,NNW,346,0.0,0.0,88,0.00,,,0.00,VWS V14.00,2013-11-06 08:30:00,
2013-11-06 03:32:00,49.4,46.0,30.44,NNW,346,0.0,0.0,88,0.00,,,0.00,VWS V14.00,2013-11-06 08:32:00,
2013-11-06 03:37:00,49.4,46.3,30.43,NNW,346,0.0,0.0,89,0.00,,,0.00,VWS V14.00,2013-11-06 08:37:00,
2013-11-06 03:42:00,49.4,46.0,30.43,NNW,346,0.0,0.0,88,0.00,,,0.00,VWS V14.00,2013-11-06 08:42:00,
2013-11-06 03:47:00,49.4,46.3,30.43,NNW,346,0.0,0.0,89,0.00,,,0.00,VWS V14.00,2013-11-06 08:47:00,
2013-11-06 03:52:00,49.4,46.3,30.43,NNW,346,0.0,0.0,89,0.00,,,0.00,VWS V14.00,2013-11-06 08:52:00,
2013-11-06 03:57:00,49.4,46.3,30.43,NNW,346,0.0,0.0,89,0.00,,,0.00,VWS V14.00,2013-11-06 08:57:00,
2013-11-06 04:00:00,49.4,46.3,30.43,NNW,346,0.0,0.0,89,0.00,,,0.00,VWS V14.00,2013-11-06 09:00:00,
2013-11-06 04:02:00,49.4,46.3,30.43,NNW,346,0.0,0.0,89,0.00,,,0.00,VWS V14.00,2013-11-06 09:02:00,
2013-11-06 04:07:00,49.4,46.3,30.43,NNW,346,0.0,0.0,89,0.00,,,0.00,VWS V14.00,2013-11-06 09:07:00,
2013-11-06 04:12:00,49.4,46.3,30.43,NNW,346,0.0,1.0,89,0.00,,,0.00,VWS V14.00,2013-11-06 09:12:00,
2013-11-06 04:17:00,49.4,46.3,30.43,NNW,346,0.0,1.0,89,0.00,,,0.00,VWS V14.00,2013-11-06 09:17:00,
2013-11-06 04:22:00,49.4,46.6,30.43,NNW,346,0.0,1.0,90,0.00,,,0.00,VWS V14.00,2013-11-06 09:22:00,
2013-11-06 04:27:00,49.4,46.6,30.43,NNW,341,0.0,2.0,90,0.00,,,0.00,VWS V14.00,2013-11-06 09:27:00,
2013-11-06 04:30:00,49.4,46.6,30.43,NNW,341,0.0,2.0,90,0.00,,,0.00,VWS V14.00,2013-11-06 09:30:00,
2013-11-06 04:32:00,49.4,46.6,30.43,NNW,341,0.0,0.0,90,0.00,,,0.00,VWS V14.00,2013-11-06 09:32:00,
2013-11-06 05:00:00,49.3,46.8,30.42,NE,53,0.0,1.0,91,0.00,,,0.00,VWS V14.00,2013-11-06 10:00:00,
2013-11-06 05:30:00,49.2,46.7,30.42,NE,45,0.0,1.0,91,0.00,,,0.00,VWS V14.00,2013-11-06 10:30:00,
2013-11-06 06:00:00,49.3,47.1,30.42,NE,45,0.0,0.0,92,0.00,,,0.00,VWS V14.00,2013-11-06 11:00:00,
2013-11-06 06:30:00,49.4,47.5,30.42,NE,45,0.0,0.0,93,0.00,,,0.00,VWS V14.00,2013-11-06 11:30:00,
2013-11-06 07:00:00,49.4,47.5,30.42,NNE,22,0.0,2.0,93,0.00,,,0.00,VWS V14.00,2013-11-06 12:00:00,
2013-11-06 07:30:00,49.8,48.2,30.41,NNE,22,0.0,0.0,94,0.00,,,0.00,VWS V14.00,2013-11-06 12:30:00,
2013-11-06 08:00:00,50.6,48.4,30.41,North,0,0.0,1.0,92,0.00,,,0.00,VWS V14.00,2013-11-06 13:00:00,
2013-11-06 08:30:00,52.3,49.2,30.41,North,0,0.0,0.0,89,0.00,,,0.00,VWS V14.00,2013-11-06 13:30:00,
2013-11-06 09:00:00,54.7,49.7,30.41,North,0,0.0,3.0,83,0.00,,,0.00,VWS V14.00,2013-11-06 14:00:00,
2013-11-06 09:30:00,54.9,49.8,30.41,NNE,22,0.0,1.0,83,0.00,,,0.00,VWS V14.00,2013-11-06 14:30:00,
2013-11-06 10:03:00,54.9,49.8,30.41,NNE,22,0.0,1.0,83,0.00,,,0.00,VWS V14.00,2013-11-06 15:03:00,
2013-11-06 10:08:00,55.7,50.6,30.40,SSE,158,1.0,1.0,83,0.00,,,0.00,VWS V14.00,2013-11-06 15:08:00,
2013-11-06 10:13:00,55.7,50.6,30.40,West,276,0.0,2.0,83,0.00,,,0.00,VWS V14.00,2013-11-06 15:13:00,
2013-11-06 10:18:00,56.0,50.6,30.40,West,276,0.0,2.0,82,0.00,,,0.00,VWS V14.00,2013-11-06 15:18:00,
2013-11-06 10:23:00,56.3,50.9,30.40,West,276,2.0,2.0,82,0.00,,,0.00,VWS V14.00,2013-11-06 15:23:00,
2013-11-06 10:28:00,56.5,50.8,30.40,WNW,285,0.0,3.0,81,0.00,,,0.00,VWS V14.00,2013-11-06 15:28:00,
2013-11-06 10:30:00,56.6,50.8,30.39,WNW,285,0.0,3.0,81,0.00,,,0.00,VWS V14.00,2013-11-06 15:30:00,
2013-11-06 10:33:00,56.7,50.9,30.39,WNW,284,1.0,3.0,81,0.00,,,0.00,VWS V14.00,2013-11-06 15:33:00,
2013-11-06 10:38:00,56.8,51.0,30.39,WNW,285,0.0,3.0,81,0.00,,,0.00,VWS V14.00,2013-11-06 15:38:00,
2013-11-06 10:43:00,57.3,51.2,30.39,SSE,153,0.0,3.0,80,0.00,,,0.00,VWS V14.00,2013-11-06 15:43:00,
2013-11-06 10:48:00,57.8,51.3,30.39,WSW,250,0.0,4.0,79,0.00,,,0.00,VWS V14.00,2013-11-06 15:48:00,
2013-11-06 10:53:00,58.1,51.6,30.39,SSW,212,6.0,6.0,79,0.00,,,0.00,VWS V14.00,2013-11-06 15:53:00,
2013-11-06 10:58:00,58.2,51.7,30.39,SW,233,1.0,6.0,79,0.00,,,0.00,VWS V14.00,2013-11-06 15:58:00,
2013-11-06 11:00:00,58.3,51.8,30.39,SSE,166,3.0,6.0,79,0.00,,,0.00,VWS V14.00,2013-11-06 16:00:00,
2013-11-06 11:03:00,58.4,51.6,30.39,SSE,161,0.0,3.0,78,0.00,,,0.00,VWS V14.00,2013-11-06 16:03:00,
2013-11-06 11:08:00,58.7,51.9,30.38,South,175,0.0,3.0,78,0.00,,,0.00,VWS V14.00,2013-11-06 16:08:00,
2013-11-06 11:13:00,59.2,52.0,30.38,South,175,2.0,3.0,77,0.00,,,0.00,VWS V14.00,2013-11-06 16:13:00,
2013-11-06 11:18:00,59.8,52.2,30.38,SSE,166,0.0,4.0,76,0.00,,,0.00,VWS V14.00,2013-11-06 16:18:00,
2013-11-06 11:23:00,60.1,52.2,30.38,SE,141,1.0,4.0,75,0.00,,,0.00,VWS V14.00,2013-11-06 16:23:00,
2013-11-06 11:28:00,60.4,52.5,30.38,SSW,209,3.0,5.0,75,0.00,,,0.00,VWS V14.00,2013-11-06 16:28:00,
2013-11-06 11:30:00,60.4,52.5,30.38,SW,227,1.0,5.0,75,0.00,,,0.00,VWS V14.00,2013-11-06 16:30:00,
2013-11-06 11:33:00,60.3,52.0,30.37,South,172,1.0,2.0,74,0.00,,,0.00,VWS V14.00,2013-11-06 16:33:00,
2013-11-06 11:38:00,60.7,52.4,30.37,SE,134,0.0,5.0,74,0.00,,,0.00,VWS V14.00,2013-11-06 16:38:00,
2013-11-06 11:43:00,61.1,52.8,30.37,SSE,150,0.0,6.0,74,0.00,,,0.00,VWS V14.00,2013-11-06 16:43:00,
2013-11-06 11:48:00,61.8,53.1,30.36,West,278,4.0,6.0,73,0.00,,,0.00,VWS V14.00,2013-11-06 16:48:00,
2013-11-06 11:53:00,61.7,53.0,30.36,WSW,242,5.0,6.0,73,0.00,,,0.00,VWS V14.00,2013-11-06 16:53:00,
2013-11-06 11:58:00,62.2,53.1,30.36,South,175,1.0,7.0,72,0.00,,,0.00,VWS V14.00,2013-11-06 16:58:00,
2013-11-06 12:00:00,62.2,52.7,30.35,South,175,0.0,7.0,71,0.00,,,0.00,VWS V14.00,2013-11-06 17:00:00,
2013-11-06 12:03:00,62.3,53.2,30.35,NNE,25,0.0,2.0,72,0.00,,,0.00,VWS V14.00,2013-11-06 17:03:00,
2013-11-06 12:08:00,62.5,53.0,30.35,SW,219,2.0,2.0,71,0.00,,,0.00,VWS V14.00,2013-11-06 17:08:00,
2013-11-06 12:13:00,62.6,53.5,30.35,South,178,1.0,2.0,72,0.00,,,0.00,VWS V14.00,2013-11-06 17:13:00,
2013-11-06 12:18:00,63.5,53.5,30.34,East,98,2.0,3.0,70,0.00,,,0.00,VWS V14.00,2013-11-06 17:18:00,
2013-11-06 12:23:00,63.9,53.5,30.33,SSE,165,2.0,5.0,69,0.00,,,0.00,VWS V14.00,2013-11-06 17:23:00,
2013-11-06 12:28:00,64.1,53.7,30.33,West,273,0.0,5.0,69,0.00,,,0.00,VWS V14.00,2013-11-06 17:28:00,
2013-11-06 12:30:00,64.2,53.8,30.33,West,273,2.0,5.0,69,0.00,,,0.00,VWS V14.00,2013-11-06 17:30:00,
2013-11-06 12:33:00,64.4,54.0,30.33,SE,140,1.0,4.0,69,0.00,,,0.00,VWS V14.00,2013-11-06 17:33:00,
2013-11-06 12:38:00,64.6,53.4,30.33,SW,225,3.0,6.0,67,0.00,,,0.00,VWS V14.00,2013-11-06 17:38:00,
2013-11-06 12:43:00,64.9,54.1,30.32,ENE,57,3.0,6.0,68,0.00,,,0.00,VWS V14.00,2013-11-06 17:43:00,
2013-11-06 12:48:00,65.4,53.8,30.32,SSE,157,3.0,6.0,66,0.00,,,0.00,VWS V14.00,2013-11-06 17:48:00,
2013-11-06 12:53:00,66.0,53.9,30.31,WSW,237,6.0,9.0,65,0.00,,,0.00,VWS V14.00,2013-11-06 17:53:00,
2013-11-06 12:58:00,65.9,53.8,30.31,SW,233,3.0,9.0,65,0.00,,,0.00,VWS V14.00,2013-11-06 17:58:00,
2013-11-06 13:00:00,66.0,53.9,30.31,WSW,246,4.0,9.0,65,0.00,,,0.00,VWS V14.00,2013-11-06 18:00:00,
2013-11-06 13:03:00,65.8,53.3,30.31,WSW,245,3.0,6.0,64,0.00,,,0.00,VWS V14.00,2013-11-06 18:03:00,
2013-11-06 13:08:00,66.2,53.7,30.30,West,273,1.0,6.0,64,0.00,,,0.00,VWS V14.00,2013-11-06 18:08:00,
2013-11-06 13:13:00,66.6,54.1,30.30,SSE,148,1.0,6.0,64,0.00,,,0.00,VWS V14.00,2013-11-06 18:13:00,
2013-11-06 13:18:00,67.3,54.7,30.30,ESE,122,4.0,8.0,64,0.00,,,0.00,VWS V14.00,2013-11-06 18:18:00,
2013-11-06 13:23:00,67.9,54.4,30.29,SSE,155,0.0,8.0,62,0.00,,,0.00,VWS V14.00,2013-11-06 18:23:00,
2013-11-06 13:28:00,68.2,54.2,30.29,SSE,167,4.0,10.0,61,0.00,,,0.00,VWS V14.00,2013-11-06 18:28:00,
2013-11-06 13:30:00,68.0,54.1,30.29,South,182,0.0,10.0,61,0.00,,,0.00,VWS V14.00,2013-11-06 18:30:00,
2013-11-06 13:33:00,67.7,54.2,30.29,South,188,4.0,6.0,62,0.00,,,0.00,VWS V14.00,2013-11-06 18:33:00,
2013-11-06 13:38:00,67.6,54.1,30.29,South,177,2.0,6.0,62,0.00,,,0.00,VWS V14.00,2013-11-06 18:38:00,
2013-11-06 13:43:00,67.8,54.8,30.28,ENE,69,1.0,7.0,63,0.00,,,0.00,VWS V14.00,2013-11-06 18:43:00,
2013-11-06 13:48:00,67.9,54.4,30.28,WNW,286,1.0,7.0,62,0.00,,,0.00,VWS V14.00,2013-11-06 18:48:00,
2013-11-06 13:53:00,68.3,54.8,30.28,ENE,65,0.0,7.0,62,0.00,,,0.00,VWS V14.00,2013-11-06 18:53:00,
2013-11-06 13:58:00,68.7,54.3,30.28,South,180,4.0,7.0,60,0.00,,,0.00,VWS V14.00,2013-11-06 18:58:00,
2013-11-06 14:00:00,68.7,54.7,30.27,SE,131,4.0,7.0,61,0.00,,,0.00,VWS V14.00,2013-11-06 19:00:00,
2013-11-06 14:03:00,68.8,54.4,30.27,South,186,3.0,7.0,60,0.00,,,0.00,VWS V14.00,2013-11-06 19:03:00,
2013-11-06 14:08:00,69.2,54.3,30.27,ESE,111,3.0,7.0,59,0.00,,,0.00,VWS V14.00,2013-11-06 19:08:00,
2013-11-06 14:13:00,69.0,54.5,30.27,SSE,165,4.0,7.0,60,0.00,,,0.00,VWS V14.00,2013-11-06 19:13:00,
2013-11-06 14:18:00,68.9,54.5,30.26,SW,224,2.0,7.0,60,0.00,,,0.00,VWS V14.00,2013-11-06 19:18:00,
2013-11-06 14:23:00,69.0,54.5,30.26,SE,131,5.0,7.0,60,0.00,,,0.00,VWS V14.00,2013-11-06 19:23:00,
2013-11-06 14:28:00,69.2,54.7,30.27,SE,125,2.0,7.0,60,0.00,,,0.00,VWS V14.00,2013-11-06 19:28:00,
2013-11-06 14:30:00,69.3,54.8,30.26,SE,136,2.0,7.0,60,0.00,,,0.00,VWS V14.00,2013-11-06 19:30:00,
2013-11-06 14:33:00,69.4,54.9,30.26,SE,143,3.0,7.0,60,0.00,,,0.00,VWS V14.00,2013-11-06 19:33:00,
2013-11-06 14:38:00,69.3,54.8,30.26,SW,216,1.0,7.0,60,0.00,,,0.00,VWS V14.00,2013-11-06 19:38:00,
2013-11-06 14:43:00,69.4,54.9,30.26,SSW,210,2.0,7.0,60,0.00,,,0.00,VWS V14.00,2013-11-06 19:43:00,
2013-11-06 14:48:00,69.8,54.8,30.26,SW,222,4.0,7.0,59,0.00,,,0.00,VWS V14.00,2013-11-06 19:48:00,
2013-11-06 14:53:00,69.7,54.8,30.26,West,260,4.0,7.0,59,0.00,,,0.00,VWS V14.00,2013-11-06 19:53:00,
2013-11-06 14:58:00,69.7,54.8,30.26,SW,232,2.0,7.0,59,0.00,,,0.00,VWS V14.00,2013-11-06 19:58:00,
2013-11-06 15:00:00,69.6,54.7,30.25,SW,220,6.0,7.0,59,0.00,,,0.00,VWS V14.00,2013-11-06 20:00:00,
2013-11-06 15:03:00,69.7,54.8,30.25,South,182,0.0,7.0,59,0.00,,,0.00,VWS V14.00,2013-11-06 20:03:00,
2013-11-06 15:09:00,70.1,55.1,30.25,SE,146,6.0,8.0,59,0.00,,,0.00,VWS V14.00,2013-11-06 20:09:00,
2013-11-06 15:14:00,70.2,54.8,30.25,SE,126,3.0,10.0,58,0.00,,,0.00,VWS V14.00,2013-11-06 20:14:00,
2013-11-06 15:19:00,69.9,54.5,30.25,ESE,123,2.0,10.0,58,0.00,,,0.00,VWS V14.00,2013-11-06 20:19:00,
2013-11-06 15:23:00,69.7,54.8,30.25,SE,140,0.0,10.0,59,0.00,,,0.00,VWS V14.00,2013-11-06 20:23:00,
2013-11-06 15:29:00,70.1,54.7,30.24,ESE,119,2.0,10.0,58,0.00,,,0.00,VWS V14.00,2013-11-06 20:29:00,
2013-11-06 15:30:00,70.2,54.8,30.24,ESE,122,0.0,10.0,58,0.00,,,0.00,VWS V14.00,2013-11-06 20:30:00,
2013-11-06 15:33:00,70.4,54.9,30.24,ESE,123,1.0,3.0,58,0.00,,,0.00,VWS V14.00,2013-11-06 20:33:00,
2013-11-06 15:38:00,70.6,54.6,30.24,SSE,168,3.0,8.0,57,0.00,,,0.00,VWS V14.00,2013-11-06 20:38:00,
2013-11-06 15:43:00,70.4,54.9,30.24,ESE,106,3.0,8.0,58,0.00,,,0.00,VWS V14.00,2013-11-06 20:43:00,
2013-11-06 15:48:00,70.4,54.9,30.24,SSE,149,2.0,8.0,58,0.00,,,0.00,VWS V14.00,2013-11-06 20:48:00,
2013-11-06 15:53:00,70.3,54.4,30.24,SSE,155,3.0,8.0,57,0.00,,,0.00,VWS V14.00,2013-11-06 20:53:00,
2013-11-06 15:58:00,70.1,55.1,30.23,SSE,151,5.0,8.0,59,0.00,,,0.00,VWS V14.00,2013-11-06 20:58:00,
2013-11-06 16:00:00,70.0,54.6,30.23,SE,136,5.0,8.0,58,0.00,,,0.00,VWS V14.00,2013-11-06 21:00:00,
2013-11-06 16:03:00,69.9,54.9,30.23,ESE,109,2.0,7.0,59,0.00,,,0.00,VWS V14.00,2013-11-06 21:03:00,
2013-11-06 16:08:00,69.8,54.8,30.23,South,170,3.0,8.0,59,0.00,,,0.00,VWS V14.00,2013-11-06 21:08:00,
2013-11-06 16:13:00,69.6,54.7,30.23,SSW,209,4.0,9.0,59,0.00,,,0.00,VWS V14.00,2013-11-06 21:13:00,
2013-11-06 16:18:00,69.6,54.7,30.22,SSE,149,4.0,9.0,59,0.00,,,0.00,VWS V14.00,2013-11-06 21:18:00,
2013-11-06 16:23:00,69.6,55.1,30.22,South,187,4.0,9.0,60,0.00,,,0.00,VWS V14.00,2013-11-06 21:23:00,
2013-11-06 16:28:00,69.7,54.8,30.22,South,183,3.0,9.0,59,0.00,,,0.00,VWS V14.00,2013-11-06 21:28:00,
2013-11-06 16:30:00,69.7,55.2,30.22,SW,220,2.0,9.0,60,0.00,,,0.00,VWS V14.00,2013-11-06 21:30:00,
2013-11-06 16:33:00,69.7,54.8,30.22,South,172,3.0,5.0,59,0.00,,,0.00,VWS V14.00,2013-11-06 21:33:00,
2013-11-06 16:38:00,69.7,55.2,30.21,South,171,1.0,6.0,60,0.00,,,0.00,VWS V14.00,2013-11-06 21:38:00,
2013-11-06 16:43:00,69.5,55.0,30.22,South,171,0.0,6.0,60,0.00,,,0.00,VWS V14.00,2013-11-06 21:43:00,
2013-11-06 16:48:00,69.5,55.0,30.21,South,171,0.0,6.0,60,0.00,,,0.00,VWS V14.00,2013-11-06 21:48:00,
2013-11-06 16:53:00,69.3,55.3,30.21,South,171,1.0,6.0,61,0.00,,,0.00,VWS V14.00,2013-11-06 21:53:00,
2013-11-06 16:58:00,68.8,55.3,30.21,SE,129,1.0,6.0,62,0.00,,,0.00,VWS V14.00,2013-11-06 21:58:00,
2013-11-06 17:00:00,68.6,55.1,30.21,SE,129,1.0,6.0,62,0.00,,,0.00,VWS V14.00,2013-11-06 22:00:00,
2013-11-06 17:03:00,68.3,55.2,30.21,ESE,123,2.0,3.0,63,0.00,,,0.00,VWS V14.00,2013-11-06 22:03:00,
2013-11-06 17:08:00,67.8,54.8,30.21,ESE,112,2.0,3.0,63,0.00,,,0.00,VWS V14.00,2013-11-06 22:08:00,
2013-11-06 17:13:00,67.2,54.6,30.21,ESE,113,2.0,3.0,64,0.00,,,0.00,VWS V14.00,2013-11-06 22:13:00,
2013-11-06 17:18:00,66.5,54.4,30.21,SE,129,1.0,4.0,65,0.00,,,0.00,VWS V14.00,2013-11-06 22:18:00,
2013-11-06 17:23:00,66.0,54.3,30.21,ESE,103,3.0,4.0,66,0.00,,,0.00,VWS V14.00,2013-11-06 22:23:00,
2013-11-06 17:28:00,65.7,54.0,30.21,ESE,113,1.0,4.0,66,0.00,,,0.00,VWS V14.00,2013-11-06 22:28:00,
2013-11-06 17:30:00,65.7,54.5,30.21,SE,131,2.0,4.0,67,0.00,,,0.00,VWS V14.00,2013-11-06 22:30:00,
2013-11-06 17:33:00,65.4,54.2,30.21,ESE,119,0.0,3.0,67,0.00,,,0.00,VWS V14.00,2013-11-06 22:33:00,
2013-11-06 17:38:00,64.7,54.3,30.21,ESE,119,0.0,3.0,69,0.00,,,0.00,VWS V14.00,2013-11-06 22:38:00,
2013-11-06 17:43:00,64.0,54.4,30.21,ESE,119,0.0,3.0,71,0.00,,,0.00,VWS V14.00,2013-11-06 22:43:00,
2013-11-06 17:48:00,63.3,54.1,30.21,ESE,119,0.0,3.0,72,0.00,,,0.00,VWS V14.00,2013-11-06 22:48:00,
2013-11-06 17:53:00,62.6,54.2,30.21,ESE,119,0.0,3.0,74,0.00,,,0.00,VWS V14.00,2013-11-06 22:53:00,
2013-11-06 17:58:00,62.0,54.0,30.21,ESE,119,0.0,3.0,75,0.00,,,0.00,VWS V14.00,2013-11-06 22:58:00,
2013-11-06 18:00:00,61.8,53.8,30.21,ESE,119,0.0,3.0,75,0.00,,,0.00,VWS V14.00,2013-11-06 23:00:00,
2013-11-06 18:03:00,61.4,53.8,30.21,ESE,119,0.0,0.0,76,0.00,,,0.00,VWS V14.00,2013-11-06 23:03:00,
2013-11-06 18:08:00,60.7,53.5,30.21,ESE,119,0.0,0.0,77,0.00,,,0.00,VWS V14.00,2013-11-06 23:08:00,
2013-11-06 18:13:00,60.2,53.3,30.21,ESE,119,0.0,0.0,78,0.00,,,0.00,VWS V14.00,2013-11-06 23:13:00,
2013-11-06 18:18:00,59.6,53.4,30.21,ESE,119,0.0,0.0,80,0.00,,,0.00,VWS V14.00,2013-11-06 23:18:00,
2013-11-06 18:23:00,59.0,52.8,30.21,ESE,119,0.0,0.0,80,0.00,,,0.00,VWS V14.00,2013-11-06 23:23:00,
2013-11-06 18:28:00,58.5,53.0,30.21,ESE,119,0.0,0.0,82,0.00,,,0.00,VWS V14.00,2013-11-06 23:28:00,
2013-11-06 18:30:00,58.4,52.9,30.21,ESE,119,0.0,0.0,82,0.00,,,0.00,VWS V14.00,2013-11-06 23:30:00,
2013-11-06 18:33:00,58.1,53.0,30.21,ESE,119,0.0,0.0,83,0.00,,,0.00,VWS V14.00,2013-11-06 23:33:00,
2013-11-06 18:38:00,57.8,53.0,30.21,ESE,119,0.0,0.0,84,0.00,,,0.00,VWS V14.00,2013-11-06 23:38:00,
2013-11-06 18:43:00,57.4,52.9,30.21,ESE,119,0.0,0.0,85,0.00,,,0.00,VWS V14.00,2013-11-06 23:43:00,
2013-11-06 18:49:00,56.9,52.8,30.21,ESE,119,0.0,0.0,86,0.00,,,0.00,VWS V14.00,2013-11-06 23:49:00,
2013-11-06 18:54:00,56.5,52.7,30.20,ESE,119,0.0,0.0,87,0.00,,,0.00,VWS V14.00,2013-11-06 23:54:00,
2013-11-06 18:59:00,56.2,52.7,30.20,ESE,119,0.0,0.0,88,0.00,,,0.00,VWS V14.00,2013-11-06 23:59:00,
2013-11-06 19:00:00,56.2,52.7,30.20,ESE,119,0.0,0.0,88,0.00,,,0.00,VWS V14.00,2013-11-07 00:00:00,
2013-11-06 19:04:00,56.2,52.7,30.20,ESE,119,1.0,1.0,88,0.00,,,0.00,VWS V14.00,2013-11-07 00:04:00,
2013-11-06 19:08:00,56.2,53.0,30.20,SE,142,4.0,8.0,89,0.00,,,0.00,VWS V14.00,2013-11-07 00:08:00,
2013-11-06 19:13:00,56.9,53.1,30.20,SE,140,0.0,8.0,87,0.00,,,0.00,VWS V14.00,2013-11-07 00:13:00,
2013-11-06 19:18:00,56.2,52.1,30.19,SSE,154,1.0,8.0,86,0.00,,,0.00,VWS V14.00,2013-11-07 00:18:00,
2013-11-06 19:24:00,55.8,52.6,30.19,SE,144,2.0,8.0,89,0.00,,,0.00,VWS V14.00,2013-11-07 00:24:00,
2013-11-06 19:29:00,56.1,52.3,30.19,South,182,2.0,8.0,87,0.00,,,0.00,VWS V14.00,2013-11-07 00:29:00,
2013-11-06 19:30:00,56.0,52.2,30.19,SSE,156,2.0,8.0,87,0.00,,,0.00,VWS V14.00,2013-11-07 00:30:00,
2013-11-06 19:34:00,55.8,52.3,30.19,SSE,148,0.0,6.0,88,0.00,,,0.00,VWS V14.00,2013-11-07 00:34:00,
2013-11-06 19:39:00,55.9,52.7,30.19,South,178,0.0,6.0,89,0.00,,,0.00,VWS V14.00,2013-11-07 00:39:00,
2013-11-06 19:44:00,56.0,52.5,30.19,SE,135,4.0,6.0,88,0.00,,,0.00,VWS V14.00,2013-11-07 00:44:00,
2013-11-06 19:49:00,56.2,52.4,30.19,SSE,155,0.0,6.0,87,0.00,,,0.00,VWS V14.00,2013-11-07 00:49:00,
2013-11-06 19:54:00,55.9,52.1,30.19,SSE,167,0.0,6.0,87,0.00,,,0.00,VWS V14.00,2013-11-07 00:54:00,
2013-11-06 19:59:00,55.5,52.3,30.18,South,178,0.0,6.0,89,0.00,,,0.00,VWS V14.00,2013-11-07 00:59:00,
2013-11-06 20:00:00,55.5,52.3,30.18,South,178,0.0,6.0,89,0.00,,,0.00,VWS V14.00,2013-11-07 01:00:00,
2013-11-06 20:04:00,55.4,52.5,30.18,South,178,0.0,0.0,90,0.00,,,0.00,VWS V14.00,2013-11-07 01:04:00,
2013-11-06 20:09:00,55.2,52.3,30.18,South,178,0.0,0.0,90,0.00,,,0.00,VWS V14.00,2013-11-07 01:09:00,
2013-11-06 20:14:00,55.1,52.2,30.18,South,177,0.0,0.0,90,0.00,,,0.00,VWS V14.00,2013-11-07 01:14:00,
2013-11-06 20:18:00,55.1,52.2,30.18,South,171,0.0,1.0,90,0.00,,,0.00,VWS V14.00,2013-11-07 01:18:00,
2013-11-06 20:24:00,55.0,52.4,30.18,South,171,0.0,1.0,91,0.00,,,0.00,VWS V14.00,2013-11-07 01:24:00,
2013-11-06 20:29:00,54.9,52.3,30.18,South,171,0.0,1.0,91,0.00,,,0.00,VWS V14.00,2013-11-07 01:29:00,
2013-11-06 20:30:00,54.9,52.3,30.18,South,171,0.0,1.0,91,0.00,,,0.00,VWS V14.00,2013-11-07 01:30:00,
2013-11-06 20:34:00,54.8,51.9,30.17,South,171,0.0,0.0,90,0.00,,,0.00,VWS V14.00,2013-11-07 01:34:00,
2013-11-06 20:39:00,54.4,51.5,30.17,South,171,0.0,0.0,90,0.00,,,0.00,VWS V14.00,2013-11-07 01:39:00,
2013-11-06 20:44:00,54.2,51.3,30.17,South,171,0.0,0.0,90,0.00,,,0.00,VWS V14.00,2013-11-07 01:44:00,
2013-11-06 20:49:00,53.7,50.8,30.17,South,171,0.0,0.0,90,0.00,,,0.00,VWS V14.00,2013-11-07 01:49:00,
2013-11-06 20:54:00,53.5,51.2,30.17,South,171,0.0,0.0,92,0.00,,,0.00,VWS V14.00,2013-11-07 01:54:00,
2013-11-06 20:59:00,53.3,51.0,30.17,South,171,0.0,0.0,92,0.00,,,0.00,VWS V14.00,2013-11-07 01:59:00,
2013-11-06 21:00:00,53.2,50.7,30.17,South,171,0.0,0.0,91,0.00,,,0.00,VWS V14.00,2013-11-07 02:00:00,
2013-11-06 21:04:00,52.9,50.3,30.17,South,171,0.0,0.0,91,0.00,,,0.00,VWS V14.00,2013-11-07 02:04:00,
2013-11-06 21:09:00,52.5,50.0,30.17,South,171,0.0,0.0,91,0.00,,,0.00,VWS V14.00,2013-11-07 02:09:00,
2013-11-06 21:14:00,52.1,49.6,30.17,South,171,0.0,0.0,91,0.00,,,0.00,VWS V14.00,2013-11-07 02:14:00,
2013-11-06 21:19:00,51.6,49.7,30.17,South,171,0.0,0.0,93,0.00,,,0.00,VWS V14.00,2013-11-07 02:19:00,
2013-11-06 21:24:00,51.5,50.1,30.17,South,171,0.0,0.0,95,0.00,,,0.00,VWS V14.00,2013-11-07 02:24:00,
2013-11-06 21:29:00,51.4,49.7,30.17,South,171,0.0,0.0,94,0.00,,,0.00,VWS V14.00,2013-11-07 02:29:00,
2013-11-06 21:30:00,51.3,49.3,30.17,South,171,0.0,0.0,93,0.00,,,0.00,VWS V14.00,2013-11-07 02:30:00,
2013-11-06 21:34:00,51.1,49.4,30.17,South,171,0.0,0.0,94,0.00,,,0.00,VWS V14.00,2013-11-07 02:34:00,
2013-11-06 21:39:00,50.9,49.2,30.17,South,171,0.0,0.0,94,0.00,,,0.00,VWS V14.00,2013-11-07 02:39:00,
2013-11-06 21:44:00,50.6,48.9,30.17,South,171,0.0,0.0,94,0.00,,,0.00,VWS V14.00,2013-11-07 02:44:00,
2013-11-06 21:49:00,50.6,49.2,30.17,South,171,0.0,0.0,95,0.00,,,0.00,VWS V14.00,2013-11-07 02:49:00,
2013-11-06 21:54:00,50.5,49.1,30.17,South,171,0.0,0.0,95,0.00,,,0.00,VWS V14.00,2013-11-07 02:54:00,
2013-11-06 21:59:00,50.1,48.4,30.16,South,171,0.0,0.0,94,0.00,,,0.00,VWS V14.00,2013-11-07 02:59:00,
2013-11-06 22:00:00,50.0,48.3,30.16,South,171,0.0,0.0,94,0.00,,,0.00,VWS V14.00,2013-11-07 03:00:00,
2013-11-06 22:04:00,49.8,48.2,30.16,South,171,0.0,0.0,94,0.00,,,0.00,VWS V14.00,2013-11-07 03:04:00,
2013-11-06 22:09:00,49.7,48.3,30.16,South,171,0.0,0.0,95,0.00,,,0.00,VWS V14.00,2013-11-07 03:09:00,
2013-11-06 22:14:00,49.5,48.4,30.16,South,171,0.0,0.0,96,0.00,,,0.00,VWS V14.00,2013-11-07 03:14:00,
2013-11-06 22:19:00,49.6,49.1,30.16,South,171,0.0,0.0,98,0.00,,,0.00,VWS V14.00,2013-11-07 03:19:00,
2013-11-06 22:24:00,49.7,49.2,30.16,South,171,0.0,0.0,98,0.00,,,0.00,VWS V14.00,2013-11-07 03:24:00,
2013-11-06 22:30:00,49.4,48.3,30.16,South,171,0.0,0.0,96,0.00,,,0.00,VWS V14.00,2013-11-07 03:30:00,
2013-11-06 23:00:00,48.2,47.1,30.15,North,0,0.0,0.0,96,0.00,,,0.00,VWS V14.00,2013-11-07 04:00:00,
2013-11-06 23:30:00,47.6,46.5,30.14,North,0,0.0,0.0,96,0.00,,,0.00,VWS V14.00,2013-11-07 04:30:00,